Location: NJAA Observatory
(40.6819°N, 74.8979°W)
Time: 14:45:25
(UTC-05:00)

Cosmos 1328 Rocket - Visible Passes

Search period start: 23 January 2018 00:00
Search period end: 02 February 2018 00:00
Orbit: 602 x 627 km, 82.5° (Epoch: 23 January)

Date Brightness Start Highest point End Pass type
(mag) Time Alt. Az. Time Alt. Az. Time Alt. Az.
23 Jan 6.1 06:29:12 10° SE 06:32:54 26° E 06:36:35 10° NNE visible
23 Jan 3.4 18:14:23 10° N 18:18:45 75° E 18:23:04 10° SSE visible
24 Jan 4.8 06:44:26 10° SSE 06:48:40 47° E 06:52:56 10° NNE visible
24 Jan 4.2 18:30:21 10° NNW 18:34:38 58° W 18:38:52 10° S visible
25 Jan 5.5 18:46:36 10° NNW 18:50:25 31° W 18:54:13 10° SSW visible
26 Jan 6.8 05:41:00 10° ESE 05:43:11 14° E 05:45:22 10° NE visible
26 Jan 6.5 19:03:16 10° NW 19:06:08 17° W 19:08:59 10° SW visible
27 Jan 6.1 05:55:19 10° SE 05:58:52 24° E 06:02:25 10° NE visible
27 Jan 3.5 17:40:20 10° N 17:44:41 68° E 17:48:58 10° SSE visible
28 Jan 5.0 06:10:27 10° SSE 06:14:38 43° E 06:18:49 10° NNE visible
28 Jan 4.1 17:56:16 10° NNW 18:00:34 64° W 18:04:50 10° S visible
29 Jan 3.7 06:26:03 10° S 06:30:28 81° E 06:34:55 10° N visible
29 Jan 5.4 18:12:27 10° NNW 18:16:22 34° W 18:20:15 10° SSW visible
30 Jan 6.9 05:07:21 10° ESE 05:09:10 12° E 05:10:59 10° ENE visible
30 Jan 3.7 06:42:03 10° SSW 06:46:24 55° W 06:50:45 10° N visible
30 Jan 6.5 18:29:03 10° NW 18:32:06 19° W 18:35:07 10° SW visible
31 Jan 6.2 05:21:26 10° SE 05:24:51 22° E 05:28:14 10° NE visible
31 Jan 7.2 18:47:08 10° WNW 18:47:44 10° W 18:48:20 10° W visible
01 Feb 5.1 05:36:29 10° SSE 05:40:35 39° E 05:44:42 10° NNE visible
